SCP
0 0 -0 -0 -0 -0 -0 -0 -0 -0 -0 -0 -0 -0 -0 -0 -0 -0 -0 -0 -0 -0 -0 -0 -0 -0 -0 -0 -0 -0 -0 0 0 -0 -0 0 0 0 0 0 0 0 -0
0 0 0 -0 -0 -0 -0 -0 -0 -0 -0 -0 0 0 -0 -0 -0 -0 -0 -0 -0 -0 -0 -0 -0 -0 -0 -0 -0 0 0 0 0 0 0 0 0 0 0 0 0 0 -0
0 0 0 0 -0 -0 -0 -0 -0 -0 -0 -0 0 0 0 0 -0 -0 -0 -0 -0 -0 -0 -0 -0 -0 -0 -0 -0 0 0 0 0 0 0 0 0 0 -0 -0 -0 -0 -0
0 0 0 0 0 -0 -0 -0 -0 -0 -0 -0 -0 0 0 0 0 0 -0 -0 -0 -0 -0 -0 -0 -0 -0 -0 0 0 0 0 0 0 0 0 0 -0 -0 -0 -0 -0 0
0 0 0 0 0 0 -0 -0 -0 -0 -0 -0 0 0 0 0 0 0 0 -0 -0 -0 -0 -0 -0 -0 -0 -0 0 0 -0 -0 0 0 0 0 0 0 -0 -0 0 0 0
0 0 0 0 0 0 -0 -0 -0 -0 -0 0 0 0 0 0 0 0 0 0 -0 -0 -0 -0 -0 -0 -0 -0 0 0 -0 -0 0 0 0 0 0 -0 -0 -0 0 -0 0
0 0 0 0 0 0 0 -0 0 0 0 0 0 0 0 0 0 0 0 0 0 -0 -0 -0 -0 -0 -0 -0 0 -0 -0 0 0 0 0 0 0 -0 -0 -0 0 0 0
0 0 0 0 0 0 0 0 0 0 0 0 0 0 0 0 0 0 0 0 0 0 -0 -0 -0 -0 0 0 -0 -0 -0 0 0 0 0 0 0 -0 -0 0 0 0 0
0 0 0 0 0 0 0 0 0 0 0 0 0 0 0 0 0 0 0 0 0 0 -0 -0 -0 0 0 0 -0 -0 0 0 0 0 0 0 0 0 0 0 0 0 0
0 0 0 0 0 0 0 0 0 0 0 0 0 0 0 0 0 0 0 0 0 0 0 0 0 0 0 0 0 0 0 0 0 0 0 0 0 0 0 0 0 0 0
0 0 0 0 0 0 0 0 0 0 0 0 0 0 0 0 0 0 0 0 0 0 0 0 0 0 0 0 0 0 0 0 0 0 0 0 0 0 0 0 0 0 0
1 0 0 0 0 0 0 0 0 0 0 0 0 0 0 0 0 0 0 0 0 0 0 0 0 0 0 0 0 0 0 0 0 0 0 0 0 0 0 0 0 0 0
1 1 0 0 0 0 0 0 0 0 0 0 0 0 0 0 0 0 0 0 0 0 0 0 0 0 0 0 0 0 0 0 0 0 0 0 0 0 0 0 0 0 0
1 1 0 0 0 0 0 0 0 0 0 0 0 0 0 0 0 0 0 0 0 0 0 0 0 0 0 0 0 0 0 0 0 0 0 0 0 0 0 0 0 0 0
1 1 0 0 0 0 0 0 0 0 0 0 0 0 0 0 0 0 0 0 0 0 0 0 0 0 0 0 0 0 0 0 0 0 0 0 0 0 0 0 0 0 0
0 1 0 0 0 0 0 0 0 0 0 0 0 0 0 0 0 0 0 0 0 0 0 0 0 0 0 0 0 0 0 0 0 0 0 0 0 0 0 0 0 0 0
0 0 0 0 0 0 0 0 0 0 0 0 0 0 0 0 0 0 0 0 0 0 0 0 0 0 0 0 0 0 0 0 0 0 0 0 0 0 0 0 0 0 0
0 0 0 0 0 0 0 0 0 0 0 0 0 0 0 0 0 0 0 0 0 0 0 0 0 0 0 0 0 0 0 0 0 0 0 0 0 0 0 0 0 0 0
0 0 1 0 0 0 0 0 0 0 0 0 0 0 0 0 0 0 0 0 0 0 0 0 0 0 0 0 0 0 0 0 0 0 0 0 0 0 0 0 0 0 0
0 0 1 1 0 0 0 0 0 0 0 0 0 0 0 0 0 0 0 0 0 0 0 0 0 0 0 0 0 0 0 0 0 0 0 0 0 0 0 0 0 0 0
0 0 0 0 1 0 0 0 0 0 0 0 0 0 0 0 0 0 0 0 0 0 0 0 0 0 0 0 0 0 0 0 0 0 0 0 0 0 0 0 0 0 0
0 0 0 0 0 0 0 0 0 0 0 0 0 0 0 0 0 0 0 0 0 0 0 0 0 0 0 0 0 0 0 0 0 0 0 0 0 0 0 0 0 0 0
0 0 0 0 0 0 0 0 0 0 0 0 0 0 0 0 0 0 0 0 0 0 0 0 0 0 0 0 0 0 0 0 0 0 0 0 0 0 0 0 0 0 0
0 0 0 0 0 0 0 0 0 0 0 0 0 0 0 0 0 0 0 0 0 0 0 0 0 0 0 0 0 0 0 0 0 0 0 0 0 0 0 0 0 0 0
0 0 0 0 0 0 0 0 0 0 0 0 0 0 0 0 0 0 0 0 0 0 0 0 0 0 0 0 0 0 0 0 0 0 0 0 0 0 0 0 0 0 0
0 0 0 0 0 0 0 0 0 0 0 0 0 0 0 0 0 0 0 0 0 0 0 0 0 0 0 0 0 0 0 0 0 0 0 0 0 0 0 0 0 0 0
Wind_Speed_500mb
61 67 70 67 65 61 55 51 46 42 45 46 47 45 43 39 36 37 34 32 31 31 31 32 32 33 35 38 38 36 31 30 28 32 27 23 23 21 21 20 20 23 23
63 71 75 72 65 62 56 51 46 44 43 43 46 47 45 43 39 39 36 34 33 32 33 34 35 36 35 35 34 32 30 29 30 27 24 22 22 24 26 26 23 22 17
61 74 77 74 68 61 57 52 47 48 46 44 47 47 46 43 42 41 38 35 34 35 37 37 37 35 33 31 30 28 27 26 24 22 24 28 32 29 27 28 24 30 30
64 75 79 76 70 62 58 52 50 51 50 47 47 44 47 42 41 41 38 36 35 36 37 37 36 33 31 31 28 26 26 26 25 23 30 28 28 21 22 22 20 22 19
67 75 82 78 72 66 60 55 52 54 55 51 49 48 43 44 42 40 40 39 38 38 38 36 34 32 31 29 25 22 24 26 25 26 22 24 28 27 18 12 15 12 7
69 76 82 78 75 70 63 57 54 55 56 54 49 50 46 44 45 41 41 40 39 36 35 35 34 32 31 29 25 21 26 23 24 21 20 30 20 13 9 8 10 6 3
72 79 83 81 76 69 65 61 58 57 54 51 49 51 49 48 45 43 41 41 39 37 35 36 33 31 31 28 24 23 26 24 21 21 23 27 23 13 5 2 5 4 6
74 82 83 78 73 67 61 61 60 59 56 53 50 53 51 51 46 44 43 40 40 38 33 35 33 31 30 28 26 28 24 23 18 19 24 20 13 13 5 4 5 9 12
69 82 82 78 70 64 59 60 61 60 56 56 53 53 55 53 47 44 45 41 40 37 34 32 31 30 30 29 28 30 25 19 15 15 18 13 11 13 7 3 6 12 11
67 83 84 80 72 65 60 59 60 59 57 57 54 56 53 52 48 45 44 45 40 35 32 30 29 30 30 32 31 27 24 22 16 14 12 11 19 15 9 3 5 11 6
65 82 82 81 76 69 65 62 60 61 55 59 57 58 55 53 47 46 44 42 41 37 30 27 27 29 30 33 34 31 27 23 19 15 12 15 18 15 11 3 3 4 7
76 86 87 83 78 74 71 68 62 63 61 60 60 59 57 51 48 47 43 42 40 39 35 31 27 29 34 36 38 33 30 25 21 16 13 17 20 19 15 12 9 6 8
80 87 87 87 82 79 78 74 68 66 69 64 62 61 59 54 52 47 46 45 45 40 37 31 31 32 35 38 39 37 33 27 23 19 16 19 19 21 20 16 14 12 9
82 82 88 86 83 82 80 77 73 68 68 70 66 64 62 58 57 52 49 46 44 41 35 30 30 32 36 39 38 36 32 31 26 22 21 22 19 24 26 21 20 18 13
85 83 81 76 83 81 79 78 76 72 66 70 65 66 66 62 59 54 49 47 44 41 35 32 33 33 37 39 38 35 32 34 31 27 26 27 24 24 30 32 30 26 24
68 83 89 88 80 80 79 79 77 73 66 63 61 63 59 56 57 53 51 48 47 42 36 31 33 35 36 38 37 36 36 36 35 34 32 31 30 30 32 36 38 33 30
64 82 96 89 82 81 80 78 75 71 67 62 58 55 58 56 57 54 51 49 47 44 39 36 34 34 36 40 40 40 41 42 41 40 37 36 36 37 37 44 47 41 34
55 80 85 88 88 67 74 78 74 71 66 61 58 55 58 57 56 53 51 49 48 45 42 42 35 37 36 38 41 43 45 46 46 45 42 41 42 43 48 53 54 52 47
42 55 89 82 82 59 59 80 75 70 66 63 59 56 59 59 57 54 52 49 50 48 44 42 42 40 38 41 42 45 48 50 51 50 49 47 47 48 51 54 56 55 54
32 67 67 80 88 70 64 75 80 75 67 62 60 58 58 61 61 58 54 54 54 50 45 54 48 45 40 41 44 49 51 54 56 57 54 53 53 53 55 59 59 59 60
35 40 69 96 92 79 83 74 82 82 73 69 63 55 53 58 61 60 56 57 58 55 56 56 54 52 47 47 45 52 56 60 63 64 61 62 60 59 60 62 62 63 62
36 41 65 77 88 86 78 80 84 74 71 68 64 62 59 59 62 59 56 60 61 60 63 63 62 60 59 54 53 56 51 60 71 71 70 69 68 65 68 67 65 64 63
41 28 51 66 93 92 83 83 75 69 70 72 72 64 65 59 58 59 62 64 66 68 69 65 66 65 66 61 61 53 24 33 44 51 65 76 76 74 72 68 67 63 62
42 40 42 51 92 74 84 83 80 79 80 75 71 68 67 66 61 58 66 69 71 74 75 67 67 66 69 70 65 71 69 70 47 32 40 40 55 67 73 72 66 62 59
37 46 41 39 38 75 82 84 79 75 71 70 70 66 66 68 66 65 67 71 72 77 74 72 71 77 77 73 72 74 73 80 81 76 68 63 64 63 58 59 60 59 59
40 45 49 33 40 44 68 84 71 69 69 70 69 70 65 70 76 72 70 74 73 82 79 81 74 78 83 81 76 81 74 72 76 80 82 82 80 72 63 59 61 57 54
Wind_Direction_500mb
179 175 173 179 180 176 176 173 169 171 173 173 173 171 171 172 167 161 158 150 143 140 137 135 135 132 129 132 131 132 127 121 112 119 104 95 90 90 94 101 113 104 97
175 175 174 179 182 180 179 178 174 168 165 166 169 170 171 169 165 162 158 149 147 143 140 136 135 134 134 135 134 133 132 128 122 113 103 95 89 96 98 98 101 99 109
180 174 175 180 184 182 181 181 178 169 171 170 166 165 170 171 171 158 155 155 152 147 143 140 139 142 143 143 142 138 135 134 130 115 108 105 101 106 111 109 115 108 108
180 176 177 180 183 184 184 180 181 176 176 174 169 170 173 173 167 161 157 155 153 150 147 145 146 148 150 150 146 140 135 135 135 123 122 112 117 123 126 140 131 135 131
181 179 179 182 185 185 186 183 184 182 179 178 170 166 170 175 166 164 161 159 158 155 152 150 152 155 156 156 154 150 131 138 135 127 124 122 126 134 142 127 133 135 135
181 182 180 182 185 188 188 188 186 184 183 180 178 168 166 174 163 166 163 163 158 155 155 152 157 161 162 164 160 154 143 144 147 138 139 129 128 131 156 153 156 184 213
180 184 182 185 187 188 191 191 187 184 186 184 178 170 170 169 167 170 165 165 161 158 158 156 161 164 168 170 164 154 150 146 147 147 145 134 131 150 123 351 84 62 71
183 182 185 187 191 192 192 189 189 188 185 179 183 172 173 171 170 169 170 168 167 164 161 158 164 169 175 176 169 162 158 155 149 150 146 139 160 171 174 330 69 84 92
190 184 185 188 190 193 191 189 190 189 185 175 175 176 177 171 172 170 171 169 171 169 164 163 169 177 180 182 174 167 165 170 166 163 165 159 188 196 169 109 106 124 103
194 191 188 188 190 190 190 189 188 186 183 176 177 177 177 173 173 177 174 173 171 168 167 169 174 187 184 186 180 176 180 187 186 180 190 191 190 201 254 123 130 147 105
197 195 193 190 189 189 189 186 189 186 180 178 181 179 178 177 177 178 178 174 170 170 175 180 186 194 190 186 187 192 190 196 204 210 211 193 202 202 174 223 213 142 26
199 197 199 194 191 189 189 186 187 184 181 180 184 182 183 181 182 180 176 176 174 176 180 189 196 196 197 193 192 197 198 210 219 229 230 199 199 216 212 217 248 249 330
205 198 202 199 194 190 189 188 189 190 181 185 186 185 188 183 186 182 181 182 179 185 187 193 199 202 201 201 199 201 208 217 226 237 235 214 202 215 218 230 218 259 291
206 202 202 201 197 193 192 191 191 193 192 185 189 189 194 189 189 186 187 187 188 190 194 200 204 206 203 202 203 209 217 223 231 241 243 231 217 211 234 234 253 255 271
210 204 204 204 203 197 194 193 194 196 196 192 194 192 199 193 190 189 190 192 193 196 201 200 203 209 209 207 210 220 228 230 237 245 250 241 231 209 230 238 255 253 277
199 212 206 203 202 202 199 197 197 199 199 200 200 202 198 195 192 193 194 195 196 199 204 203 212 216 218 221 226 229 233 237 244 249 250 244 235 216 227 235 250 252 262
231 217 208 205 200 210 204 203 201 202 204 202 205 208 202 198 197 198 197 200 201 203 205 205 205 216 225 230 233 236 240 244 247 249 250 243 238 231 218 230 238 249 258
241 217 207 205 204 195 209 209 206 205 206 206 207 205 203 201 201 201 203 206 205 206 210 213 218 230 242 238 240 241 243 245 248 249 248 245 244 239 239 234 246 259 268
235 230 208 216 213 196 211 212 211 211 211 211 210 207 208 206 205 206 209 210 205 211 216 222 225 233 249 244 243 245 246 248 250 251 250 249 248 244 245 247 253 258 265
249 223 220 215 211 203 198 213 212 211 215 216 215 215 213 212 209 211 213 212 207 213 222 224 228 239 245 252 250 250 250 251 252 252 252 250 249 247 248 249 253 258 263
263 240 216 208 207 207 200 199 218 211 211 214 217 218 216 218 214 215 219 215 217 217 221 228 234 239 241 245 251 254 254 255 255 254 253 252 250 249 249 251 255 259 262
263 240 216 215 214 210 206 200 212 216 215 218 216 220 224 225 220 222 227 223 224 216 227 234 236 241 244 244 247 251 260 263 261 259 258 256 254 252 253 253 257 261 265
247 258 223 204 213 213 206 209 210 213 220 220 219 220 224 230 230 228 228 227 230 227 230 238 240 245 251 250 250 242 246 249 268 268 264 261 258 256 256 257 260 264 266
236 242 253 230 219 220 208 215 212 214 215 220 220 222 225 234 235 235 234 233 234 235 237 239 247 248 252 251 251 248 254 255 265 278 276 273 266 263 262 261 263 267 266
238 230 238 240 223 225 215 217 215 218 226 228 225 226 235 234 236 238 238 237 238 237 239 241 248 250 253 251 257 259 255 256 256 259 270 271 268 270 268 266 266 269 269
220 217 228 243 241 243 218 225 222 224 229 228 228 235 237 235 237 237 239 239 241 240 239 241 251 252 252 260 257 256 259 262 264 260 262 267 272 274 271 268 270 270 271
Wind_Speed_850mb
61 67 70 67 65 61 55 51 46 42 45 46 47 45 43 39 36 37 34 32 31 31 31 32 32 33 35 38 38 36 31 30 28 32 27 23 23 21 21 20 20 23 23
63 71 75 72 65 62 56 51 46 44 43 43 46 47 45 43 39 39 36 34 33 32 33 34 35 36 35 35 34 32 30 29 30 27 24 22 22 24 26 26 23 22 17
61 74 77 74 68 61 57 52 47 48 46 44 47 47 46 43 42 41 38 35 34 35 37 37 37 35 33 31 30 28 27 26 24 22 24 28 32 29 27 28 24 30 30
64 75 79 76 70 62 58 52 50 51 50 47 47 44 47 42 41 41 38 36 35 36 37 37 36 33 31 31 28 26 26 26 25 23 30 28 28 21 22 22 20 22 19
67 75 82 78 72 66 60 55 52 54 55 51 49 48 43 44 42 40 40 39 38 38 38 36 34 32 31 29 25 22 24 26 25 26 22 24 28 27 18 12 15 12 7
69 76 82 78 75 70 63 57 54 55 56 54 49 50 46 44 45 41 41 40 39 36 35 35 34 32 31 29 25 21 26 23 24 21 20 30 20 13 9 8 10 6 3
72 79 83 81 76 69 65 61 58 57 54 51 49 51 49 48 45 43 41 41 39 37 35 36 33 31 31 28 24 23 26 24 21 21 23 27 23 13 5 2 5 4 6
74 82 83 78 73 67 61 61 60 59 56 53 50 53 51 51 46 44 43 40 40 38 33 35 33 31 30 28 26 28 24 23 18 19 24 20 13 13 5 4 5 9 12
69 82 82 78 70 64 59 60 61 60 56 56 53 53 55 53 47 44 45 41 40 37 34 32 31 30 30 29 28 30 25 19 15 15 18 13 11 13 7 3 6 12 11
67 83 84 80 72 65 60 59 60 59 57 57 54 56 53 52 48 45 44 45 40 35 32 30 29 30 30 32 31 27 24 22 16 14 12 11 19 15 9 3 5 11 6
65 82 82 81 76 69 65 62 60 61 55 59 57 58 55 53 47 46 44 42 41 37 30 27 27 29 30 33 34 31 27 23 19 15 12 15 18 15 11 3 3 4 7
76 86 87 83 78 74 71 68 62 63 61 60 60 59 57 51 48 47 43 42 40 39 35 31 27 29 34 36 38 33 30 25 21 16 13 17 20 19 15 12 9 6 8
80 87 87 87 82 79 78 74 68 66 69 64 62 61 59 54 52 47 46 45 45 40 37 31 31 32 35 38 39 37 33 27 23 19 16 19 19 21 20 16 14 12 9
82 82 88 86 83 82 80 77 73 68 68 70 66 64 62 58 57 52 49 46 44 41 35 30 30 32 36 39 38 36 32 31 26 22 21 22 19 24 26 21 20 18 13
85 83 81 76 83 81 79 78 76 72 66 70 65 66 66 62 59 54 49 47 44 41 35 32 33 33 37 39 38 35 32 34 31 27 26 27 24 24 30 32 30 26 24
68 83 89 88 80 80 79 79 77 73 66 63 61 63 59 56 57 53 51 48 47 42 36 31 33 35 36 38 37 36 36 36 35 34 32 31 30 30 32 36 38 33 30
64 82 96 89 82 81 80 78 75 71 67 62 58 55 58 56 57 54 51 49 47 44 39 36 34 34 36 40 40 40 41 42 41 40 37 36 36 37 37 44 47 41 34
55 80 85 88 88 67 74 78 74 71 66 61 58 55 58 57 56 53 51 49 48 45 42 42 35 37 36 38 41 43 45 46 46 45 42 41 42 43 48 53 54 52 47
42 55 89 82 82 59 59 80 75 70 66 63 59 56 59 59 57 54 52 49 50 48 44 42 42 40 38 41 42 45 48 50 51 50 49 47 47 48 51 54 56 55 54
32 67 67 80 88 70 64 75 80 75 67 62 60 58 58 61 61 58 54 54 54 50 45 54 48 45 40 41 44 49 51 54 56 57 54 53 53 53 55 59 59 59 60
35 40 69 96 92 79 83 74 82 82 73 69 63 55 53 58 61 60 56 57 58 55 56 56 54 52 47 47 45 52 56 60 63 64 61 62 60 59 60 62 62 63 62
36 41 65 77 88 86 78 80 84 74 71 68 64 62 59 59 62 59 56 60 61 60 63 63 62 60 59 54 53 56 51 60 71 71 70 69 68 65 68 67 65 64 63
41 28 51 66 93 92 83 83 75 69 70 72 72 64 65 59 58 59 62 64 66 68 69 65 66 65 66 61 61 53 24 33 44 51 65 76 76 74 72 68 67 63 62
42 40 42 51 92 74 84 83 80 79 80 75 71 68 67 66 61 58 66 69 71 74 75 67 67 66 69 70 65 71 69 70 47 32 40 40 55 67 73 72 66 62 59
37 46 41 39 38 75 82 84 79 75 71 70 70 66 66 68 66 65 67 71 72 77 74 72 71 77 77 73 72 74 73 80 81 76 68 63 64 63 58 59 60 59 59
40 45 49 33 40 44 68 84 71 69 69 70 69 70 65 70 76 72 70 74 73 82 79 81 74 78 83 81 76 81 74 72 76 80 82 82 80 72 63 59 61 57 54
Wind_Direction_850mb
179 175 173 179 180 176 176 173 169 171 173 173 173 171 171 172 167 161 158 150 143 140 137 135 135 132 129 132 131 132 127 121 112 119 104 95 90 90 94 101 113 104 97
175 175 174 179 182 180 179 178 174 168 165 166 169 170 171 169 165 162 158 149 147 143 140 136 135 134 134 135 134 133 132 128 122 113 103 95 89 96 98 98 101 99 109
180 174 175 180 184 182 181 181 178 169 171 170 166 165 170 171 171 158 155 155 152 147 143 140 139 142 143 143 142 138 135 134 130 115 108 105 101 106 111 109 115 108 108
180 176 177 180 183 184 184 180 181 176 176 174 169 170 173 173 167 161 157 155 153 150 147 145 146 148 150 150 146 140 135 135 135 123 122 112 117 123 126 140 131 135 131
181 179 179 182 185 185 186 183 184 182 179 178 170 166 170 175 166 164 161 159 158 155 152 150 152 155 156 156 154 150 131 138 135 127 124 122 126 134 142 127 133 135 135
181 182 180 182 185 188 188 188 186 184 183 180 178 168 166 174 163 166 163 163 158 155 155 152 157 161 162 164 160 154 143 144 147 138 139 129 128 131 156 153 156 184 213
180 184 182 185 187 188 191 191 187 184 186 184 178 170 170 169 167 170 165 165 161 158 158 156 161 164 168 170 164 154 150 146 147 147 145 134 131 150 123 351 84 62 71
183 182 185 187 191 192 192 189 189 188 185 179 183 172 173 171 170 169 170 168 167 164 161 158 164 169 175 176 169 162 158 155 149 150 146 139 160 171 174 330 69 84 92
190 184 185 188 190 193 191 189 190 189 185 175 175 176 177 171 172 170 171 169 171 169 164 163 169 177 180 182 174 167 165 170 166 163 165 159 188 196 169 109 106 124 103
194 191 188 188 190 190 190 189 188 186 183 176 177 177 177 173 173 177 174 173 171 168 167 169 174 187 184 186 180 176 180 187 186 180 190 191 190 201 254 123 130 147 105
197 195 193 190 189 189 189 186 189 186 180 178 181 179 178 177 177 178 178 174 170 170 175 180 186 194 190 186 187 192 190 196 204 210 211 193 202 202 174 223 213 142 26
199 197 199 194 191 189 189 186 187 184 181 180 184 182 183 181 182 180 176 176 174 176 180 189 196 196 197 193 192 197 198 210 219 229 230 199 199 216 212 217 248 249 330
205 198 202 199 194 190 189 188 189 190 181 185 186 185 188 183 186 182 181 182 179 185 187 193 199 202 201 201 199 201 208 217 226 237 235 214 202 215 218 230 218 259 291
206 202 202 201 197 193 192 191 191 193 192 185 189 189 194 189 189 186 187 187 188 190 194 200 204 206 203 202 203 209 217 223 231 241 243 231 217 211 234 234 253 255 271
210 204 204 204 203 197 194 193 194 196 196 192 194 192 199 193 190 189 190 192 193 196 201 200 203 209 209 207 210 220 228 230 237 245 250 241 231 209 230 238 255 253 277
199 212 206 203 202 202 199 197 197 199 199 200 200 202 198 195 192 193 194 195 196 199 204 203 212 216 218 221 226 229 233 237 244 249 250 244 235 216 227 235 250 252 262
231 217 208 205 200 210 204 203 201 202 204 202 205 208 202 198 197 198 197 200 201 203 205 205 205 216 225 230 233 236 240 244 247 249 250 243 238 231 218 230 238 249 258
241 217 207 205 204 195 209 209 206 205 206 206 207 205 203 201 201 201 203 206 205 206 210 213 218 230 242 238 240 241 243 245 248 249 248 245 244 239 239 234 246 259 268
235 230 208 216 213 196 211 212 211 211 211 211 210 207 208 206 205 206 209 210 205 211 216 222 225 233 249 244 243 245 246 248 250 251 250 249 248 244 245 247 253 258 265
249 223 220 215 211 203 198 213 212 211 215 216 215 215 213 212 209 211 213 212 207 213 222 224 228 239 245 252 250 250 250 251 252 252 252 250 249 247 248 249 253 258 263
263 240 216 208 207 207 200 199 218 211 211 214 217 218 216 218 214 215 219 215 217 217 221 228 234 239 241 245 251 254 254 255 255 254 253 252 250 249 249 251 255 259 262
263 240 216 215 214 210 206 200 212 216 215 218 216 220 224 225 220 222 227 223 224 216 227 234 236 241 244 244 247 251 260 263 261 259 258 256 254 252 253 253 257 261 265
247 258 223 204 213 213 206 209 210 213 220 220 219 220 224 230 230 228 228 227 230 227 230 238 240 245 251 250 250 242 246 249 268 268 264 261 258 256 256 257 260 264 266
236 242 253 230 219 220 208 215 212 214 215 220 220 222 225 234 235 235 234 233 234 235 237 239 247 248 252 251 251 248 254 255 265 278 276 273 266 263 262 261 263 267 266
238 230 238 240 223 225 215 217 215 218 226 228 225 226 235 234 236 238 238 237 238 237 239 241 248 250 253 251 257 259 255 256 256 259 270 271 268 270 268 266 266 269 269
220 217 228 243 241 243 218 225 222 224 229 228 228 235 237 235 237 237 239 239 241 240 239 241 251 252 252 260 257 256 259 262 264 260 262 267 272 274 271 268 270 270 271